Wind_Speed
25 25 24 24 25 26 26 27 27 26 26 27 28 29 30 32 34 36 37 39 40 40 41 41 41 42 43 43 45 46 47 49 51 52 53 55 56 58 60 62 64 66 67
25 25 25 25 26 27 27 27 26 25 25 26 28 30 32 34 36 37 38 39 40 41 41 42 42 43 44 45 46 48 49 51 54 57 59 60 61 63 65 67 68 70 72
24 25 25 26 27 27 27 26 25 25 26 28 29 31 33 35 36 37 38 40 41 41 42 43 44 44 46 47 49 51 54 56 59 62 66 68 70 70 69 71 73 74 75
24 25 26 27 27 26 26 25 25 26 28 29 31 33 34 35 36 38 39 40 41 42 43 44 45 46 48 50 53 56 59 62 65 67 70 74 77 79 79 79 80 81 81
26 26 27 27 26 26 26 27 27 29 30 31 33 34 35 36 37 39 40 41 42 43 44 46 47 49 52 55 59 62 66 69 72 74 76 78 80 82 85 86 86 87 87
27 27 27 28 28 28 28 28 29 30 31 33 34 34 36 37 39 40 41 43 44 45 47 49 51 54 58 61 65 68 71 73 76 78 81 83 85 86 88 89 89 90 91
28 28 29 29 28 28 29 29 30 31 32 33 34 35 37 39 40 41 43 44 46 47 50 53 56 60 64 67 70 73 75 77 79 82 84 86 88 91 93 96 96 97 96
28 29 30 29 29 28 29 30 31 32 33 34 35 37 38 40 41 43 44 46 48 50 54 58 62 65 69 72 74 76 78 80 82 84 87 89 91 94 97 100 103 105 104
28 30 30 29 29 29 29 30 31 32 33 35 36 38 39 41 42 44 46 49 52 56 60 63 67 70 72 74 77 79 81 83 85 87 90 92 94 97 100 102 104 107 109
27 28 28 27 28 28 29 30 31 32 34 36 37 39 40 42 44 46 50 53 57 61 65 68 71 73 75 77 80 82 84 86 88 90 92 95 98 100 101 102 103 103 104
27 27 27 27 27 28 29 30 32 34 35 37 38 40 42 44 47 51 55 59 62 66 69 71 73 75 78 80 82 84 86 89 91 93 96 98 100 101 101 100 99 98 98
27 27 26 26 27 29 30 32 33 35 36 38 40 42 45 49 53 56 60 63 67 69 71 74 76 78 81 83 85 86 89 91 93 96 98 99 99 99 98 96 94 93 92
27 26 26 27 29 31 32 33 34 36 38 40 43 46 50 54 57 61 64 67 69 72 74 77 79 80 82 84 87 89 91 93 95 97 98 97 96 94 93 91 89 87 85
27 27 27 29 31 32 33 34 36 38 41 44 47 51 55 58 62 65 68 70 72 74 77 78 80 82 84 87 89 91 93 95 95 95 94 92 91 90 89 87 84 81 77
27 27 29 31 32 33 35 36 38 41 44 48 51 55 59 62 66 68 70 72 74 76 78 79 81 84 87 89 91 93 94 94 93 91 89 87 87 87 85 81 78 74 71
28 29 31 32 34 35 37 39 41 45 48 52 56 60 63 66 68 70 72 74 75 77 78 80 83 86 89 91 93 94 93 91 89 86 84 83 84 82 78 74 71 69 67
30 31 32 34 35 37 39 41 45 48 52 56 61 64 66 68 70 72 73 74 75 77 79 82 85 88 90 91 91 90 88 86 84 83 82 82 80 77 73 68 64 61 60
31 32 34 35 36 38 41 44 48 53 57 61 64 66 68 69 70 71 72 74 76 78 81 85 88 89 90 90 88 86 83 81 80 82 83 81 76 72 68 64 59 55 54
32 33 34 35 37 40 44 48 52 57 61 64 66 67 68 68 69 71 72 75 77 81 85 88 89 89 88 86 84 82 80 78 79 81 81 76 71 66 64 60 56 51 49
32 33 34 37 39 43 47 52 57 61 63 65 66 66 66 67 69 71 74 77 81 85 87 89 89 87 84 82 80 80 79 79 79 79 75 69 64 61 58 55 52 48 43
32 34 36 39 43 47 52 56 60 63 64 64 63 64 65 67 70 73 77 81 85 87 88 88 86 83 80 77 76 77 79 81 79 75 67 61 57 54 51 49 47 43 37
33 36 39 43 47 52 56 59 61 61 61 61 61 63 66 69 74 78 82 85 88 88 86 83 80 77 75 74 75 76 79 81 77 69 60 54 51 47 45 43 40 35 29
36 40 44 48 52 55 58 59 58 58 58 59 61 65 69 74 78 82 85 87 87 85 82 78 75 73 72 73 75 77 78 76 69 60 53 48 45 42 39 36 32 26 21
41 45 49 52 55 56 56 55 55 55 57 60 64 69 73 78 82 85 87 86 84 81 77 74 72 71 71 74 76 78 76 69 59 52 47 43 39 36 32 28 23 20 19
45 49 51 54 54 53 52 52 53 55 59 64 69 73 78 82 84 86 85 83 80 76 73 72 72 72 73 75 78 77 70 60 53 47 42 37 32 28 25 21 19 19 21
48 50 51 51 50 49 50 52 55 59 64 69 74 78 82 85 86 85 82 78 73 70 69 71 73 74 76 77 76 70 60 53 48 43 37 31 26 21 16 16 17 19 20
Wind_Direction
228 233 239 247 255 262 268 271 274 276 277 278 279 281 283 285 288 290 292 294 295 296 297 298 299 300 300 300 300 300 300 300 300 300 300 299 299 298 297 296 294 293 292
229 235 243 250 258 264 269 271 273 275 277 278 280 282 284 287 289 291 293 295 296 298 299 301 301 301 301 301 301 301 301 301 301 301 300 299 297 296 296 294 293 291 290
234 240 247 255 261 265 268 269 271 274 276 278 281 284 286 288 290 292 294 295 297 299 300 301 301 301 301 301 301 301 301 301 301 301 300 299 298 296 294 293 291 290 289
240 246 253 258 262 265 266 268 270 273 276 280 283 285 287 289 291 293 295 296 298 299 299 299 300 300 300 301 301 302 302 302 302 301 301 300 300 299 297 296 294 292 291
244 250 256 260 263 266 267 270 272 276 279 282 284 286 289 291 292 294 295 296 297 297 297 297 298 299 300 302 303 304 304 304 303 302 301 300 299 298 297 297 295 294 293
247 253 258 262 265 268 270 273 276 278 281 283 286 288 290 292 293 293 294 294 295 295 296 298 299 301 302 304 304 305 304 304 303 303 302 301 300 298 297 296 295 294 293
249 254 259 263 266 270 273 276 278 280 283 285 288 290 291 292 293 293 294 294 295 297 298 300 302 303 304 305 305 305 304 304 303 303 302 301 300 300 299 298 297 295 294
252 255 259 262 266 270 273 276 278 281 284 287 289 291 292 293 293 294 294 296 297 299 300 302 303 304 304 305 305 305 305 304 304 303 303 303 302 302 301 301 300 298 296
255 258 261 265 269 272 275 278 281 284 287 289 291 293 293 293 294 295 296 298 299 301 303 304 304 305 305 305 306 306 305 305 305 305 305 305 304 303 303 302 301 299 297
259 262 265 268 271 274 277 280 284 287 290 292 293 294 294 295 296 297 299 301 303 304 305 305 305 306 306 306 306 306 306 306 307 306 306 306 305 304 303 302 300 299 298
262 264 266 269 273 277 281 285 288 290 292 293 294 294 295 297 299 300 302 304 305 306 306 306 306 307 307 307 307 308 308 308 308 308 307 307 306 305 304 302 301 300 299
264 265 267 271 276 280 285 288 291 292 293 294 295 296 298 300 302 304 305 306 306 307 307 307 307 307 307 308 309 309 309 309 309 309 308 308 307 305 304 304 303 302 301
265 267 269 274 279 284 288 290 291 292 293 295 297 299 301 304 305 306 307 307 307 307 307 308 308 308 309 309 310 310 311 311 310 310 309 308 307 307 306 306 305 304 303
267 269 272 278 282 286 288 290 291 293 295 298 300 302 304 306 306 307 307 307 307 307 308 309 309 310 310 311 311 312 312 312 311 310 309 309 309 308 308 307 306 305 304
268 271 275 280 284 286 288 290 292 295 298 300 302 304 306 307 307 308 308 308 308 308 309 310 311 311 312 312 313 313 313 312 311 310 310 310 310 310 310 309 308 307 306
268 272 277 281 284 287 289 292 294 297 300 302 304 306 307 308 308 308 308 308 309 309 310 311 312 313 313 313 313 313 313 312 311 311 311 311 312 311 310 309 309 308 308
269 274 278 283 286 288 291 293 296 299 302 304 306 307 307 308 307 308 308 309 310 311 312 313 313 313 314 314 313 313 312 312 312 313 313 314 314 312 311 310 309 309 309
271 276 280 283 286 289 292 295 299 301 304 305 306 307 307 307 308 309 310 311 312 313 313 314 314 314 314 313 313 313 313 314 314 315 316 316 315 313 311 311 310 310 310
273 277 280 283 286 290 294 298 301 303 305 306 306 307 307 308 309 310 311 312 313 314 314 315 315 315 314 314 314 314 315 315 316 317 318 317 315 314 312 312 312 313 313
275 278 280 284 288 293 297 300 302 304 305 306 307 308 309 310 311 312 313 314 315 315 315 315 315 315 314 314 315 315 316 317 318 318 318 316 315 314 313 313 314 315 315
275 278 283 288 293 297 300 302 303 305 306 307 309 310 311 312 313 314 315 315 316 316 316 315 315 315 314 315 316 316 317 318 319 319 319 317 315 315 314 314 315 317 319
278 283 288 293 296 299 301 302 304 306 308 309 311 311 312 314 315 316 316 316 316 316 316 315 315 314 315 316 316 317 318 319 320 320 319 318 317 316 316 316 317 320 322
283 288 292 295 297 300 302 304 306 308 310 311 312 314 315 316 317 317 317 317 316 316 315 315 315 315 316 317 317 318 319 320 320 321 320 320 319 319 318 319 321 325 328
287 291 294 296 299 302 304 306 308 310 312 313 314 316 317 318 318 318 317 317 316 316 316 315 316 317 317 318 318 319 321 321 322 322 322 322 322 322 322 324 328 334 338
289 293 296 299 301 304 306 308 310 312 314 315 316 318 318 319 319 318 317 317 317 317 317 317 318 319 319 320 320 322 323 324 324 324 325 325 326 325 325 330 336 340 342
292 296 298 301 304 306 308 310 312 314 316 317 318 319 319 319 318 318 317 317 318 318 318 319 320 320 321 321 322 323 324 324 325 326 327 329 330 330 332 335 338 340 344
Height
5793 5794 5795 5796 5796 5796 5796 5795 5794 5793 5791 5790 5788 5787 5785 5783 5780 5777 5774 5771 5767 5764 5761 5758 5754 5750 5747 5743 5739 5735 5731 5726 5722 5718 5715 5711 5706 5702 5696 5692 5686 5681 5676
5788 5790 5790 5791 5791 5790 5790 5789 5788 5787 5786 5784 5783 5781 5779 5776 5773 5770 5767 5763 5760 5756 5753 5749 5745 5742 5737 5733 5729 5725 5721 5716 5710 5704 5700 5697 5695 5689 5683 5676 5670 5665 5659
5784 5785 5785 5785 5785 5785 5784 5783 5782 5781 5780 5778 5777 5774 5772 5769 5766 5763 5759 5756 5752 5749 5745 5741 5737 5733 5728 5723 5718 5713 5708 5704 5698 5691 5683 5677 5673 5671 5668 5661 5654 5647 5641
5779 5779 5780 5779 5779 5779 5778 5778 5777 5775 5774 5772 5770 5768 5765 5762 5759 5755 5752 5748 5744 5740 5736 5732 5727 5723 5718 5712 5707 5701 5695 5689 5683 5676 5668 5659 5651 5644 5642 5639 5631 5625 5619
5774 5774 5774 5774 5773 5773 5773 5772 5771 5770 5768 5766 5763 5760 5757 5754 5751 5747 5744 5740 5736 5731 5727 5722 5717 5712 5706 5700 5694 5687 5679 5672 5664 5657 5649 5641 5632 5623 5616 5613 5607 5599 5592
5768 5768 5768 5768 5768 5767 5767 5767 5765 5763 5761 5758 5756 5753 5750 5746 5743 5739 5735 5731 5726 5722 5717 5711 5706 5700 5694 5687 5679 5672 5664 5655 5646 5637 5627 5618 5609 5600 5591 5586 5582 5576 5571
5762 5762 5762 5762 5762 5762 5761 5760 5758 5756 5753 5751 5748 5745 5742 5738 5734 5730 5726 5721 5717 5712 5706 5700 5694 5687 5680 5672 5664 5656 5647 5637 5627 5617 5607 5596 5585 5574 5563 5554 5549 5546 5543
5756 5755 5755 5755 5755 5755 5754 5753 5751 5748 5746 5743 5740 5737 5733 5729 5725 5721 5716 5712 5707 5701 5695 5689 5682 5674 5666 5657 5648 5638 5628 5618 5607 5596 5585 5574 5562 5550 5537 5523 5512 5506 5506
5749 5749 5749 5749 5748 5748 5746 5745 5743 5740 5738 5735 5732 5728 5724 5720 5716 5711 5706 5701 5696 5690 5683 5675 5667 5659 5650 5640 5630 5620 5609 5598 5586 5574 5562 5550 5537 5524 5510 5496 5480 5465 5456
5743 5742 5742 5742 5741 5740 5739 5737 5735 5732 5729 5726 5723 5719 5715 5711 5706 5701 5696 5690 5683 5676 5668 5660 5651 5641 5631 5621 5611 5600 5588 5577 5564 5551 5539 5526 5512 5498 5484 5469 5454 5436 5418
5736 5736 5735 5734 5734 5732 5731 5729 5727 5724 5721 5717 5714 5710 5705 5701 5696 5690 5683 5676 5669 5661 5652 5643 5633 5623 5613 5602 5591 5580 5568 5555 5542 5528 5515 5501 5486 5471 5456 5441 5427 5412 5394
5730 5729 5729 5728 5727 5725 5723 5721 5718 5715 5712 5708 5704 5700 5695 5690 5684 5677 5670 5662 5654 5645 5635 5625 5615 5604 5593 5582 5571 5559 5547 5534 5520 5506 5491 5475 5460 5445 5430 5415 5401 5387 5373
5723 5723 5722 5721 5719 5717 5715 5712 5710 5706 5703 5699 5694 5690 5684 5678 5671 5663 5655 5647 5638 5628 5618 5608 5597 5585 5574 5563 5551 5539 5526 5512 5497 5481 5466 5450 5435 5421 5406 5392 5378 5364 5351
5717 5717 5716 5714 5712 5709 5707 5704 5701 5697 5693 5689 5684 5678 5672 5665 5657 5649 5640 5631 5621 5611 5601 5590 5578 5566 5555 5543 5530 5518 5504 5490 5474 5458 5442 5426 5411 5397 5383 5370 5357 5343 5331
5710 5710 5708 5706 5704 5701 5699 5696 5692 5688 5684 5679 5673 5667 5660 5652 5644 5635 5625 5615 5605 5594 5583 5572 5560 5548 5535 5522 5509 5496 5482 5467 5452 5437 5422 5406 5391 5376 5361 5347 5335 5323 5311
5703 5702 5700 5698 5696 5693 5690 5687 5683 5678 5673 5667 5661 5654 5646 5638 5629 5619 5609 5599 5589 5578 5566 5555 5542 5530 5516 5502 5488 5473 5460 5446 5430 5417 5404 5389 5373 5358 5344 5330 5317 5304 5292
5696 5694 5692 5690 5688 5685 5681 5677 5673 5668 5662 5656 5649 5641 5632 5623 5614 5604 5594 5584 5573 5562 5550 5537 5524 5511 5497 5483 5468 5453 5439 5425 5410 5396 5382 5369 5354 5338 5325 5315 5305 5293 5280
5688 5686 5684 5682 5679 5676 5672 5668 5663 5657 5650 5643 5635 5627 5618 5609 5599 5589 5579 5568 5557 5545 5533 5520 5506 5492 5477 5462 5447 5434 5421 5407 5392 5377 5361 5347 5334 5320 5307 5298 5290 5281 5270
5680 5678 5676 5673 5670 5667 5662 5657 5652 5645 5638 5630 5622 5613 5604 5594 5584 5574 5564 5553 5541 5529 5515 5501 5487 5473 5458 5442 5427 5413 5402 5390 5376 5361 5344 5329 5316 5304 5291 5282 5274 5268 5259
5671 5669 5667 5665 5661 5657 5652 5647 5640 5633 5625 5616 5608 5599 5589 5580 5570 5560 5548 5537 5524 5511 5497 5482 5467 5453 5439 5425 5410 5394 5382 5372 5360 5347 5330 5315 5301 5290 5279 5269 5261 5254 5247
5662 5661 5659 5656 5652 5647 5641 5635 5628 5620 5611 5602 5593 5584 5575 5565 5555 5544 5532 5520 5507 5494 5479 5465 5450 5436 5422 5409 5396 5381 5366 5353 5341 5329 5316 5303 5289 5278 5268 5258 5250 5243 5236
5654 5652 5649 5646 5641 5636 5630 5622 5615 5606 5598 5589 5580 5571 5561 5550 5539 5527 5514 5501 5487 5474 5460 5447 5433 5419 5406 5394 5381 5367 5352 5336 5323 5311 5300 5289 5278 5268 5259 5250 5242 5235 5229
5645 5643 5639 5635 5630 5624 5617 5609 5601 5593 5584 5575 5566 5556 5546 5534 5522 5509 5496 5482 5468 5454 5442 5429 5418 5406 5393 5380 5366 5353 5338 5323 5309 5298 5288 5277 5267 5258 5251 5243 5236 5230 5225
5636 5632 5628 5623 5617 5611 5604 5596 5588 5580 5571 5562 5552 5542 5531 5519 5506 5492 5477 5463 5448 5436 5423 5412 5402 5391 5379 5364 5350 5336 5323 5309 5297 5287 5278 5268 5259 5250 5243 5237 5231 5226 5221
5625 5621 5616 5610 5604 5597 5590 5583 5575 5567 5558 5548 5538 5527 5514 5502 5489 5475 5460 5445 5431 5416 5405 5394 5384 5373 5362 5348 5332 5317 5305 5294 5284 5275 5268 5260 5253 5245 5239 5233 5228 5224 5220
5613 5609 5603 5597 5591 5585 5578 5570 5563 5554 5544 5534 5523 5510 5498 5485 5471 5458 5445 5430 5417 5404 5391 5378 5367 5356 5344 5330 5317 5304 5293 5283 5275 5267 5259 5253 5246 5241 5236 5232 5228 5223 5218